STARLINK-32851, 62810

Orbit data source: Space-Track

STARLINK-32851, 62810 is a payload satellite owned by SpaceX/Seattle (US) in LEO that was launched on Fri, 24 Jan 2025 UTC via an FALCON 9 launch vehicle from the Air Force Western Test Range (AFWTR). Payload-class satellites include a variety of spacecraft equipped with specific instruments for various scientific and technological missions. These include communications satellites like Starlink; space stations such as the ISS; scientific satellites like the Hubble; Earth observation satellites from companies like Planet Labs, Umbra, and HawkEye 360; GPS; miniature CubeSats for education and research; and military/defense satellites.

Loading next visibility...
Identifier
62810, 2025-018E
Orbit
LEO
Last TLE update
8 hours ago
Origin
Manufacturer
SpaceX/Seattle
Mission
Operational Commercial Communications
Bus & Motor
STARLINK V2M, Unknown motor
Mass
730 kg wet, ~700 kg dry
Launch date (UTC)
2025-01-24 (6 months ago)
Launch vehicle
FALCON 9
Launch site
Air Force Western Test Range (AFWTR)
Object type
Payload
Rocket body
Debris
Shape & HBR
Box + 2 Pan, 29 m
Radar Cross Section
33.884 m², Large (>1 m²)

Expand to show TLE details & history

TLE from 8 hours ago
0 STARLINK-32851
1 62810U 25018E   25194.14371150  .00030065  00000-0  10221-2 0  9998
2 62810  53.1615 342.2131 0000163 300.0851  60.0133 15.30231551 27449
Epoch: 2025-07-13T03:26Z
TLE epoch observation values (Epoch: 2025-07-13T03:26:56.673Z)
Latitude
-0.00008°
Longitude
-0.79425°
Altitude
475.965 km
Speed
7.629 km/s
True Right ascension
22h 48m 51s
True Declination
0° 00' 00"
Sunlit
Object was in full shadow at epoch
Visualization orbit readout
Latitude
-42.87548°
Longitude
-46.02842°
Altitude
489.306 km
Speed
7.62 km/s
Apparent Right ascension
15h 44m 10s
Apparent Declination
-62° 14' 18"
Sunlit
Object is in full shadow
Visualization observer readout
Local Sidereal Time
23:27:54
Azimuth
217.395° SW
Elevation
-46.39°
Doppler factor
1
Orbital elements
Apogee altitude
475.489 km
Perigee altitude
475.265 km
Semi-major axis
6,853.514 km
Eccentricity
0.00002
Inclination
53.1615°
RAAN
342.2131°
Arg. of periapsis
300.0851°
True anomaly
Unknown
Mean anomaly
60.0133°
Eccentric anomaly
Unknown
Mean motion
3.82537 °/min
Orbital period
94.11 mins
BSTAR
0.0010221
Loading maneuver chart data...
Loading SW <> Apogee altitude chart data...
Loading historical data...
Loading historical data...
Loading historical data...
Loading historical data...
Loading historical data...
Loading historical data...
Loading historical data...

STARLINK-32851 Visibility forecast

Observer location: undefined°, undefined°

Span
Click to sort rows by Start time (UTC) header in descending order
Start Az.
Max El. time (UTC)
Max El. Az.
Max El.
End time (UTC)
End Az.
5 mins2025-07-13 13:04:02.823Z248.248° W2025-07-13 13:06:02.823Z353.942° N41.228°2025-07-13 13:09:02.823Z44.26° NE
4 mins2025-07-13 18:01:02.823Z352.674° N2025-07-13 18:02:02.823Z12.853° NNE18.244°2025-07-13 18:05:02.823Z69.826° E
5 mins2025-07-13 19:39:02.823Z304.252° NW2025-07-13 19:41:02.823Z170.709° S43.604°2025-07-13 19:44:02.823Z135.855° SSE
|